Wetterdaten: Donnerstag, 18.06.2015
Datum Zeit Temp. A. Feuchte A. Luftdruck Regen Wind Richtung Richtung Sonnenschein ET UV Solar Taupunkt Windchill Windben Empfang
18.06.2015 00:00 9,1 C 86 % 1019,9 hPa 0,0 l/m 0,0 km/h (0 Bft) S-SO 163 0 min 0,000 mm 0,0 UV-I 0 W/m 6,9 C 9,1 C 0,0 km/h (0 Bft) 0,00 %
18.06.2015 00:05 9,0 C 86 % 1019,8 hPa 0,0 l/m 0,0 km/h (0 Bft) S-SO 163 0 min 0,000 mm 0,0 UV-I 0 W/m 6,8 C 9,0 C 0,0 km/h (0 Bft) 0,00 %
18.06.2015 00:10 8,9 C 87 % 1019,8 hPa 0,0 l/m 0,0 km/h (0 Bft) S-SO 162 0 min 0,000 mm 0,0 UV-I 0 W/m 6,9 C 8,9 C 0,0 km/h (0 Bft) 0,00 %
18.06.2015 00:15 8,9 C 87 % 1020,0 hPa 0,0 l/m 0,0 km/h (0 Bft) S-SO 162 0 min 0,000 mm 0,0 UV-I 0 W/m 6,9 C 8,9 C 0,0 km/h (0 Bft) 0,00 %
18.06.2015 00:20 9,0 C 88 % 1019,8 hPa 0,0 l/m 0,0 km/h (0 Bft) S-SO 162 0 min 0,000 mm 0,0 UV-I 0 W/m 7,1 C 9,0 C 0,0 km/h (0 Bft) 0,00 %
18.06.2015 00:25 9,0 C 89 % 1019,7 hPa 0,0 l/m 0,0 km/h (0 Bft) S-SO 162 0 min 0,000 mm 0,0 UV-I 0 W/m 7,3 C 9,0 C 0,0 km/h (0 Bft) 0,00 %
18.06.2015 00:30 9,1 C 90 % 1019,8 hPa 0,0 l/m 0,0 km/h (0 Bft) S-SO 162 0 min 0,000 mm 0,0 UV-I 0 W/m 7,5 C 9,1 C 0,0 km/h (0 Bft) 0,00 %
18.06.2015 00:35 9,1 C 90 % 1019,8 hPa 0,0 l/m 0,0 km/h (0 Bft) S-SO 162 0 min 0,000 mm 0,0 UV-I 0 W/m 7,5 C 9,1 C 0,0 km/h (0 Bft) 0,00 %
18.06.2015 00:40 9,2 C 91 % 1019,7 hPa 0,0 l/m 0,0 km/h (0 Bft) S-SO 162 0 min 0,000 mm 0,0 UV-I 0 W/m 7,8 C 9,2 C 0,0 km/h (0 Bft) 0,00 %
18.06.2015 00:45 9,3 C 92 % 1019,7 hPa 0,0 l/m 0,0 km/h (0 Bft) S-SO 162 0 min 0,000 mm 0,0 UV-I 0 W/m 8,1 C 9,3 C 0,0 km/h (0 Bft) 0,00 %
18.06.2015 00:50 9,3 C 92 % 1019,8 hPa 0,0 l/m 0,0 km/h (0 Bft) S-SO 162 0 min 0,000 mm 0,0 UV-I 0 W/m 8,1 C 9,3 C 0,0 km/h (0 Bft) 0,00 %
18.06.2015 00:55 9,4 C 92 % 1019,6 hPa 0,0 l/m 0,0 km/h (0 Bft) S-SO 162 0 min 0,000 mm 0,0 UV-I 0 W/m 8,2 C 9,4 C 0,0 km/h (0 Bft) 0,00 %
18.06.2015 01:00 9,4 C 93 % 1019,4 hPa 0,0 l/m 0,0 km/h (0 Bft) S-SO 162 0 min 0,000 mm 0,0 UV-I 0 W/m 8,3 C 9,4 C 0,0 km/h (0 Bft) 0,00 %
18.06.2015 01:05 9,5 C 93 % 1019,3 hPa 0,0 l/m 0,0 km/h (0 Bft) S-SO 162 0 min 0,000 mm 0,0 UV-I 0 W/m 8,4 C 9,5 C 0,0 km/h (0 Bft) 0,00 %
18.06.2015 01:10 9,5 C 94 % 1019,2 hPa 0,0 l/m 0,0 km/h (0 Bft) S-SO 161 0 min 0,000 mm 0,0 UV-I 0 W/m 8,6 C 9,5 C 0,0 km/h (0 Bft) 0,00 %
18.06.2015 01:15 9,5 C 94 % 1019,3 hPa 0,0 l/m 0,0 km/h (0 Bft) S-SO 161 0 min 0,000 mm 0,0 UV-I 0 W/m 8,6 C 9,5 C 0,0 km/h (0 Bft) 0,00 %
18.06.2015 01:20 9,6 C 94 % 1019,1 hPa 0,0 l/m 0,0 km/h (0 Bft) S-SO 161 0 min 0,000 mm 0,0 UV-I 0 W/m 8,7 C 9,6 C 0,0 km/h (0 Bft) 0,00 %
18.06.2015 01:25 9,6 C 94 % 1019,1 hPa 0,0 l/m 0,0 km/h (0 Bft) S-SO 161 0 min 0,000 mm 0,0 UV-I 0 W/m 8,7 C 9,6 C 0,0 km/h (0 Bft) 0,00 %
18.06.2015 01:30 9,6 C 94 % 1019,0 hPa 0,0 l/m 0,0 km/h (0 Bft) S-SO 162 0 min 0,000 mm 0,0 UV-I 0 W/m 8,7 C 9,6 C 0,0 km/h (0 Bft) 0,00 %
18.06.2015 01:35 9,6 C 94 % 1019,2 hPa 0,0 l/m 0,0 km/h (0 Bft) S-SO 162 0 min 0,000 mm 0,0 UV-I 0 W/m 8,7 C 9,6 C 0,0 km/h (0 Bft) 0,00 %
18.06.2015 01:40 9,5 C 94 % 1019,0 hPa 0,0 l/m 0,0 km/h (0 Bft) S-SO 162 0 min 0,000 mm 0,0 UV-I 0 W/m 8,6 C 9,5 C 0,0 km/h (0 Bft) 0,00 %
18.06.2015 01:45 9,5 C 94 % 1018,9 hPa 0,0 l/m 0,0 km/h (0 Bft) S-SO 162 0 min 0,000 mm 0,0 UV-I 0 W/m 8,6 C 9,5 C 0,0 km/h (0 Bft) 0,00 %
18.06.2015 01:50 9,4 C 94 % 1018,9 hPa 0,0 l/m 0,0 km/h (0 Bft) S-SO 162 0 min 0,000 mm 0,0 UV-I 0 W/m 8,5 C 9,4 C 0,0 km/h (0 Bft) 0,00 %
18.06.2015 01:55 9,4 C 95 % 1018,9 hPa 0,0 l/m 0,0 km/h (0 Bft) S-SO 162 0 min 0,000 mm 0,0 UV-I 0 W/m 8,6 C 9,4 C 0,0 km/h (0 Bft) 0,00 %
18.06.2015 02:00 9,3 C 95 % 1018,8 hPa 0,0 l/m 0,0 km/h (0 Bft) S-SO 162 0 min 0,000 mm 0,0 UV-I 0 W/m 8,5 C 9,3 C 0,0 km/h (0 Bft) 0,00 %
18.06.2015 02:05 9,2 C 95 % 1018,9 hPa 0,0 l/m 0,0 km/h (0 Bft) S-SO 162 0 min 0,000 mm 0,0 UV-I 0 W/m 8,4 C 9,2 C 0,0 km/h (0 Bft) 0,00 %
18.06.2015 02:10 9,2 C 95 % 1018,9 hPa 0,0 l/m 0,0 km/h (0 Bft) S-SO 162 0 min 0,000 mm 0,0 UV-I 0 W/m 8,4 C 9,2 C 0,0 km/h (0 Bft) 0,00 %
18.06.2015 02:15 9,1 C 96 % 1018,7 hPa 0,0 l/m 0,0 km/h (0 Bft) S-SO 162 0 min 0,000 mm 0,0 UV-I 0 W/m 8,5 C 9,1 C 0,0 km/h (0 Bft) 0,00 %
18.06.2015 02:20 9,0 C 96 % 1018,7 hPa 0,0 l/m 0,0 km/h (0 Bft) S-SO 162 0 min 0,000 mm 0,0 UV-I 0 W/m 8,4 C 9,0 C 0,0 km/h (0 Bft) 0,00 %
18.06.2015 02:25 9,0 C 96 % 1018,8 hPa 0,0 l/m 0,0 km/h (0 Bft) S-SO 162 0 min 0,000 mm 0,0 UV-I 0 W/m 8,4 C 9,0 C 0,0 km/h (0 Bft) 0,00 %
18.06.2015 02:30 8,9 C 96 % 1018,6 hPa 0,0 l/m 0,0 km/h (0 Bft) SO 136 0 min 0,000 mm 0,0 UV-I 0 W/m 8,3 C 8,9 C 0,0 km/h (0 Bft) 0,00 %
18.06.2015 02:35 8,9 C 96 % 1018,7 hPa 0,0 l/m 0,0 km/h (0 Bft) SO 136 0 min 0,000 mm 0,0 UV-I 0 W/m 8,3 C 8,9 C 0,0 km/h (0 Bft) 0,00 %
18.06.2015 02:40 8,9 C 96 % 1018,6 hPa 0,0 l/m 0,0 km/h (0 Bft) SO 136 0 min 0,000 mm 0,0 UV-I 0 W/m 8,3 C 8,9 C 0,0 km/h (0 Bft) 0,00 %
18.06.2015 02:45 8,8 C 96 % 1018,7 hPa 0,0 l/m 0,0 km/h (0 Bft) SO 136 0 min 0,000 mm 0,0 UV-I 0 W/m 8,2 C 8,8 C 0,0 km/h (0 Bft) 0,00 %
18.06.2015 02:50 8,8 C 96 % 1018,6 hPa 0,0 l/m 0,0 km/h (0 Bft) S-SO 165 0 min 0,000 mm 0,0 UV-I 0 W/m 8,2 C 8,8 C 0,0 km/h (0 Bft) 0,00 %
18.06.2015 02:55 8,8 C 96 % 1018,4 hPa 0,0 l/m 0,0 km/h (0 Bft) S-SO 165 0 min 0,000 mm 0,0 UV-I 0 W/m 8,2 C 8,8 C 0,0 km/h (0 Bft) 0,00 %
18.06.2015 03:00 8,8 C 96 % 1018,5 hPa 0,0 l/m 0,0 km/h (0 Bft) S-SO 165 0 min 0,000 mm 0,0 UV-I 0 W/m 8,2 C 8,8 C 0,0 km/h (0 Bft) 0,00 %
18.06.2015 03:05 8,8 C 96 % 1018,3 hPa 0,0 l/m 0,0 km/h (0 Bft) S-SO 165 0 min 0,000 mm 0,0 UV-I 0 W/m 8,2 C 8,8 C 0,0 km/h (0 Bft) 0,00 %
18.06.2015 03:10 8,7 C 96 % 1018,5 hPa 0,0 l/m 0,0 km/h (0 Bft) S-SO 165 0 min 0,000 mm 0,0 UV-I 0 W/m 8,1 C 8,7 C 0,0 km/h (0 Bft) 0,00 %
18.06.2015 03:15 8,6 C 96 % 1018,3 hPa 0,0 l/m 0,0 km/h (0 Bft) S-SO 165 0 min 0,000 mm 0,0 UV-I 0 W/m 8,0 C 8,6 C 0,0 km/h (0 Bft) 0,00 %
18.06.2015 03:20 8,6 C 97 % 1018,4 hPa 0,0 l/m 0,0 km/h (0 Bft) S-SO 165 0 min 0,000 mm 0,0 UV-I 0 W/m 8,2 C 8,6 C 0,0 km/h (0 Bft) 0,00 %
18.06.2015 03:25 8,5 C 97 % 1018,4 hPa 0,0 l/m 0,0 km/h (0 Bft) S-SO 165 0 min 0,000 mm 0,0 UV-I 0 W/m 8,1 C 8,5 C 0,0 km/h (0 Bft) 0,00 %
18.06.2015 03:30 8,4 C 97 % 1018,4 hPa 0,0 l/m 0,0 km/h (0 Bft) S-SO 165 0 min 0,000 mm 0,0 UV-I 0 W/m 8,0 C 8,4 C 0,0 km/h (0 Bft) 0,00 %
18.06.2015 03:35 8,3 C 97 % 1018,4 hPa 0,0 l/m 0,0 km/h (0 Bft) S-SO 165 0 min 0,000 mm 0,0 UV-I 0 W/m 7,9 C 8,3 C 0,0 km/h (0 Bft) 0,00 %
18.06.2015 03:40 8,3 C 97 % 1018,5 hPa 0,0 l/m 0,0 km/h (0 Bft) S-SO 165 0 min 0,000 mm 0,0 UV-I 0 W/m 7,9 C 8,3 C 0,0 km/h (0 Bft) 0,00 %
18.06.2015 03:45 8,2 C 97 % 1018,5 hPa 0,0 l/m 0,0 km/h (0 Bft) S-SO 165 0 min 0,000 mm 0,0 UV-I 0 W/m 7,8 C 8,2 C 0,0 km/h (0 Bft) 0,00 %
18.06.2015 03:50 8,2 C 97 % 1018,4 hPa 0,0 l/m 0,0 km/h (0 Bft) S-SO 165 0 min 0,000 mm 0,0 UV-I 0 W/m 7,8 C 8,2 C 0,0 km/h (0 Bft) 0,00 %
18.06.2015 03:55 8,3 C 97 % 1018,3 hPa 0,0 l/m 0,0 km/h (0 Bft) S-SO 164 0 min 0,000 mm 0,0 UV-I 0 W/m 7,9 C 8,3 C 0,0 km/h (0 Bft) 0,00 %
18.06.2015 04:00 8,3 C 97 % 1018,2 hPa 0,0 l/m 0,0 km/h (0 Bft) S-SO 164 0 min 0,000 mm 0,0 UV-I 0 W/m 7,9 C 8,3 C 0,0 km/h (0 Bft) 0,00 %
18.06.2015 04:05 8,3 C 97 % 1018,2 hPa 0,0 l/m 0,0 km/h (0 Bft) S-SO 164 0 min 0,000 mm 0,0 UV-I 0 W/m 7,9 C 8,3 C 0,0 km/h (0 Bft) 0,00 %
18.06.2015 04:10 8,3 C 98 % 1018,2 hPa 0,0 l/m 0,0 km/h (0 Bft) S-SO 164 0 min 0,000 mm 0,0 UV-I 0 W/m 8,0 C 8,3 C 0,0 km/h (0 Bft) 0,00 %
18.06.2015 04:15 8,3 C 98 % 1018,1 hPa 0,0 l/m 0,0 km/h (0 Bft) S-SO 164 0 min 0,000 mm 0,0 UV-I 0 W/m 8,0 C 8,3 C 0,0 km/h (0 Bft) 0,00 %
18.06.2015 04:20 8,4 C 98 % 1018,2 hPa 0,0 l/m 0,0 km/h (0 Bft) S-SO 164 0 min 0,000 mm 0,0 UV-I 0 W/m 8,1 C 8,4 C 0,0 km/h (0 Bft) 0,00 %
18.06.2015 04:25 8,5 C 98 % 1018,0 hPa 0,0 l/m 0,0 km/h (0 Bft) S-SO 163 0 min 0,000 mm 0,0 UV-I 0 W/m 8,2 C 8,5 C 0,0 km/h (0 Bft) 0,00 %
18.06.2015 04:30 8,6 C 98 % 1018,0 hPa 0,0 l/m 0,0 km/h (0 Bft) S-SO 163 0 min 0,000 mm 0,0 UV-I 0 W/m 8,3 C 8,6 C 0,0 km/h (0 Bft) 0,00 %
18.06.2015 04:35 8,8 C 98 % 1018,0 hPa 0,0 l/m 0,0 km/h (0 Bft) S-SO 163 0 min 0,000 mm 0,0 UV-I 0 W/m 8,5 C 8,8 C 0,0 km/h (0 Bft) 0,00 %
18.06.2015 04:40 8,9 C 99 % 1018,1 hPa 0,0 l/m 0,0 km/h (0 Bft) S-SO 163 0 min 0,000 mm 0,0 UV-I 0 W/m 8,8 C 8,9 C 0,0 km/h (0 Bft) 0,00 %
18.06.2015 04:45 9,1 C 98 % 1018,0 hPa 0,0 l/m 0,0 km/h (0 Bft) S-SO 163 0 min 0,000 mm 0,0 UV-I 0 W/m 8,8 C 9,1 C 0,0 km/h (0 Bft) 0,00 %
18.06.2015 04:50 9,4 C 98 % 1017,8 hPa 0,0 l/m 0,0 km/h (0 Bft) S-SO 162 0 min 0,000 mm 0,0 UV-I 0 W/m 9,1 C 9,4 C 0,0 km/h (0 Bft) 0,00 %
18.06.2015 04:55 9,6 C 98 % 1018,0 hPa 0,0 l/m 0,0 km/h (0 Bft) S-SO 162 0 min 0,000 mm 0,0 UV-I 0 W/m 9,3 C 9,6 C 0,0 km/h (0 Bft) 0,00 %
18.06.2015 05:00 9,8 C 98 % 1017,7 hPa 0,0 l/m 0,0 km/h (0 Bft) S-SO 161 0 min 0,000 mm 0,0 UV-I 0 W/m 9,5 C 9,8 C 0,0 km/h (0 Bft) 0,00 %
18.06.2015 05:05 10,0 C 98 % 1017,7 hPa 0,0 l/m 0,0 km/h (0 Bft) S-SO 161 0 min 0,000 mm 0,0 UV-I 0 W/m 9,7 C 10,0 C 0,0 km/h (0 Bft) 0,00 %
18.06.2015 05:10 10,0 C 98 % 1017,7 hPa 0,0 l/m 0,0 km/h (0 Bft) S-SO 163 0 min 0,000 mm 0,0 UV-I 1 W/m 9,7 C 10,0 C 0,0 km/h (0 Bft) 0,00 %
18.06.2015 05:15 10,0 C 98 % 1017,5 hPa 0,0 l/m 0,0 km/h (0 Bft) S 179 0 min 0,000 mm 0,0 UV-I 6 W/m 9,7 C 10,0 C 0,0 km/h (0 Bft) 0,00 %
18.06.2015 05:20 10,2 C 96 % 1017,7 hPa 0,0 l/m 0,0 km/h (0 Bft) S 179 5 min 0,000 mm 0,0 UV-I 16 W/m 9,6 C 10,2 C 0,0 km/h (0 Bft) 0,00 %
18.06.2015 05:25 10,4 C 96 % 1017,5 hPa 0,0 l/m 0,0 km/h (0 Bft) S 179 5 min 0,000 mm 0,0 UV-I 22 W/m 9,8 C 10,4 C 0,0 km/h (0 Bft) 0,00 %
18.06.2015 05:30 10,6 C 95 % 1017,5 hPa 0,0 l/m 0,0 km/h (0 Bft) W-SW 252 5 min 0,000 mm 0,0 UV-I 27 W/m 9,8 C 10,6 C 0,0 km/h (0 Bft) 0,00 %
18.06.2015 05:35 10,8 C 94 % 1017,6 hPa 0,0 l/m 0,0 km/h (0 Bft) S 180 0 min 0,000 mm 1,0 UV-I 32 W/m 9,9 C 10,8 C 0,0 km/h (0 Bft) 0,00 %
18.06.2015 05:40 11,0 C 92 % 1017,5 hPa 0,0 l/m 0,0 km/h (0 Bft) S 180 0 min 0,000 mm 1,0 UV-I 38 W/m 9,8 C 11,0 C 0,0 km/h (0 Bft) 0,00 %
18.06.2015 05:45 11,3 C 90 % 1017,4 hPa 0,0 l/m 0,0 km/h (0 Bft) S 180 0 min 0,000 mm 1,0 UV-I 44 W/m 9,7 C 11,3 C 0,0 km/h (0 Bft) 0,00 %
18.06.2015 05:50 11,5 C 89 % 1017,4 hPa 0,0 l/m 0,0 km/h (0 Bft) S 180 0 min 0,000 mm 1,0 UV-I 49 W/m 9,8 C 11,5 C 0,0 km/h (0 Bft) 0,00 %
18.06.2015 05:55 11,8 C 88 % 1017,4 hPa 0,0 l/m 0,0 km/h (0 Bft) S 180 0 min 0,000 mm 1,0 UV-I 54 W/m 9,9 C 11,8 C 0,0 km/h (0 Bft) 0,00 %
18.06.2015 06:00 12,0 C 86 % 1017,3 hPa 0,0 l/m 0,0 km/h (0 Bft) S 177 0 min 0,000 mm 1,0 UV-I 57 W/m 9,7 C 12,0 C 0,0 km/h (0 Bft) 0,00 %
18.06.2015 06:05 12,2 C 85 % 1017,4 hPa 0,0 l/m 0,0 km/h (0 Bft) S 178 0 min 0,000 mm 1,0 UV-I 58 W/m 9,8 C 12,2 C 0,0 km/h (0 Bft) 0,00 %
18.06.2015 06:10 12,5 C 84 % 1017,1 hPa 0,0 l/m 0,0 km/h (0 Bft) S 178 0 min 0,000 mm 1,0 UV-I 67 W/m 9,9 C 12,5 C 0,0 km/h (0 Bft) 0,00 %
18.06.2015 06:15 12,7 C 83 % 1017,2 hPa 0,0 l/m 0,0 km/h (0 Bft) S 178 0 min 0,000 mm 1,0 UV-I 75 W/m 9,9 C 12,7 C 0,0 km/h (0 Bft) 0,00 %
18.06.2015 06:20 13,2 C 81 % 1017,2 hPa 0,0 l/m 0,0 km/h (0 Bft) S 178 0 min 0,000 mm 1,0 UV-I 83 W/m 10,0 C 13,2 C 0,0 km/h (0 Bft) 0,00 %
18.06.2015 06:25 13,5 C 79 % 1017,0 hPa 0,0 l/m 0,0 km/h (0 Bft) S 178 0 min 0,000 mm 1,0 UV-I 91 W/m 9,9 C 13,5 C 0,0 km/h (0 Bft) 0,00 %
18.06.2015 06:30 13,6 C 79 % 1017,1 hPa 0,0 l/m 0,0 km/h (0 Bft) S 178 0 min 0,000 mm 1,0 UV-I 90 W/m 10,0 C 13,6 C 0,0 km/h (0 Bft) 0,00 %
18.06.2015 06:35 13,5 C 78 % 1017,1 hPa 0,0 l/m 0,0 km/h (0 Bft) S 184 0 min 0,000 mm 1,0 UV-I 96 W/m 9,7 C 13,5 C 0,0 km/h (0 Bft) 0,00 %
18.06.2015 06:40 13,4 C 78 % 1017,1 hPa 0,0 l/m 0,0 km/h (0 Bft) S 184 0 min 0,000 mm 1,0 UV-I 105 W/m 9,6 C 13,4 C 0,0 km/h (0 Bft) 0,00 %
18.06.2015 06:45 13,3 C 77 % 1017,0 hPa 0,0 l/m 0,0 km/h (0 Bft) S 190 0 min 0,000 mm 1,0 UV-I 114 W/m 9,4 C 13,3 C 0,0 km/h (0 Bft) 0,00 %
18.06.2015 06:50 13,6 C 77 % 1016,9 hPa 0,0 l/m 0,0 km/h (0 Bft) S-SW 199 0 min 0,000 mm 1,0 UV-I 123 W/m 9,6 C 13,6 C 0,0 km/h (0 Bft) 0,00 %
18.06.2015 06:55 13,8 C 74 % 1017,0 hPa 0,0 l/m 0,0 km/h (0 Bft) S-SW 202 0 min 0,000 mm 1,0 UV-I 129 W/m 9,2 C 13,8 C 0,0 km/h (0 Bft) 0,00 %
18.06.2015 07:00 13,9 C 75 % 1017,0 hPa 0,0 l/m 0,0 km/h (0 Bft) S 174 0 min 0,000 mm 1,0 UV-I 136 W/m 9,5 C 13,9 C 0,0 km/h (0 Bft) 0,00 %
18.06.2015 07:05 14,2 C 74 % 1017,0 hPa 0,0 l/m 0,0 km/h (0 Bft) S 173 0 min 0,000 mm 1,0 UV-I 154 W/m 9,6 C 14,2 C 0,0 km/h (0 Bft) 0,00 %
18.06.2015 07:10 14,7 C 71 % 1016,8 hPa 0,0 l/m 0,0 km/h (0 Bft) S 183 5 min 0,000 mm 1,0 UV-I 188 W/m 9,5 C 14,7 C 0,0 km/h (0 Bft) 0,00 %
18.06.2015 07:15 15,1 C 70 % 1017,0 hPa 0,0 l/m 0,0 km/h (0 Bft) NO 44 5 min 0,000 mm 1,0 UV-I 185 W/m 9,7 C 15,1 C 0,0 km/h (0 Bft) 0,00 %
18.06.2015 07:20 15,2 C 71 % 1017,1 hPa 0,0 l/m 0,0 km/h (0 Bft) SW 227 0 min 0,000 mm 1,0 UV-I 159 W/m 10,0 C 15,2 C 0,0 km/h (0 Bft) 0,00 %
18.06.2015 07:25 15,2 C 70 % 1016,9 hPa 0,0 l/m 0,0 km/h (0 Bft) S 181 0 min 0,000 mm 2,0 UV-I 156 W/m 9,8 C 15,2 C 0,0 km/h (0 Bft) 0,00 %
18.06.2015 07:30 15,6 C 69 % 1016,7 hPa 0,0 l/m 0,0 km/h (0 Bft) S-SW 192 0 min 0,000 mm 2,0 UV-I 158 W/m 9,9 C 15,6 C 0,0 km/h (0 Bft) 0,00 %
18.06.2015 07:35 16,2 C 67 % 1016,8 hPa 0,0 l/m 0,0 km/h (0 Bft) SO 135 0 min 0,000 mm 2,0 UV-I 174 W/m 10,1 C 16,2 C 0,0 km/h (0 Bft) 0,00 %
18.06.2015 07:40 16,8 C 64 % 1016,6 hPa 0,0 l/m 0,0 km/h (0 Bft) O-SO 107 0 min 0,000 mm 2,0 UV-I 183 W/m 10,0 C 16,8 C 0,0 km/h (0 Bft) 0,00 %
18.06.2015 07:45 17,6 C 61 % 1016,6 hPa 0,0 l/m 4,0 km/h (1 Bft) W-NW 290 0 min 0,000 mm 2,0 UV-I 190 W/m 10,0 C 17,6 C 4,0 km/h (1 Bft) 0,00 %
18.06.2015 07:50 17,3 C 65 % 1016,6 hPa 0,0 l/m 0,4 km/h (0 Bft) S 180 0 min 0,000 mm 2,0 UV-I 196 W/m 10,7 C 17,3 C 4,0 km/h (1 Bft) 0,00 %
18.06.2015 07:55 16,9 C 64 % 1016,6 hPa 0,0 l/m 1,8 km/h (1 Bft) W-SW 256 5 min 0,000 mm 2,0 UV-I 242 W/m 10,0 C 16,9 C 4,0 km/h (1 Bft) 0,00 %
18.06.2015 08:00 16,9 C 67 % 1016,7 hPa 0,0 l/m 2,9 km/h (1 Bft) W-SW 255 5 min 0,000 mm 2,0 UV-I 320 W/m 10,7 C 16,9 C 4,0 km/h (1 Bft) 0,00 %
18.06.2015 08:05 16,7 C 67 % 1016,5 hPa 0,0 l/m 0,4 km/h (0 Bft) SO 137 0 min 0,000 mm 2,0 UV-I 233 W/m 10,5 C 16,7 C 4,0 km/h (1 Bft) 0,00 %
18.06.2015 08:10 16,7 C 66 % 1016,7 hPa 0,0 l/m 0,0 km/h (0 Bft) S-SO 150 5 min 0,000 mm 2,0 UV-I 260 W/m 10,3 C 16,7 C 0,0 km/h (0 Bft) 0,00 %
18.06.2015 08:15 17,0 C 66 % 1016,7 hPa 0,0 l/m 0,0 km/h (0 Bft) O 100 0 min 0,000 mm 2,0 UV-I 253 W/m 10,6 C 17,0 C 0,0 km/h (0 Bft) 0,00 %
18.06.2015 08:20 17,0 C 67 % 1016,7 hPa 0,0 l/m 0,0 km/h (0 Bft) SO 138 5 min 0,000 mm 1,0 UV-I 316 W/m 10,8 C 17,0 C 0,0 km/h (0 Bft) 0,00 %
18.06.2015 08:25 16,9 C 66 % 1016,7 hPa 0,0 l/m 0,0 km/h (0 Bft) SW 234 5 min 0,000 mm 1,0 UV-I 530 W/m 10,5 C 16,9 C 0,0 km/h (0 Bft) 0,00 %
18.06.2015 08:30 16,5 C 68 % 1016,6 hPa 0,0 l/m 1,4 km/h (1 Bft) SW 230 5 min 0,000 mm 1,0 UV-I 582 W/m 10,6 C 16,5 C 4,0 km/h (1 Bft) 0,00 %
18.06.2015 08:35 16,6 C 68 % 1016,7 hPa 0,0 l/m 0,4 km/h (0 Bft) S 188 5 min 0,000 mm 1,0 UV-I 621 W/m 10,7 C 16,6 C 4,0 km/h (1 Bft) 0,00 %
18.06.2015 08:40 16,6 C 68 % 1016,6 hPa 0,0 l/m 0,0 km/h (0 Bft) S-SW 204 5 min 0,000 mm 1,0 UV-I 391 W/m 10,7 C 16,6 C 0,0 km/h (0 Bft) 0,00 %
18.06.2015 08:45 16,5 C 68 % 1016,7 hPa 0,0 l/m 0,0 km/h (0 Bft) S 177 5 min 0,000 mm 1,0 UV-I 337 W/m 10,6 C 16,5 C 0,0 km/h (0 Bft) 0,00 %
18.06.2015 08:50 16,6 C 69 % 1016,7 hPa 0,0 l/m 0,0 km/h (0 Bft) S-SO 153 5 min 0,000 mm 1,0 UV-I 329 W/m 10,9 C 16,6 C 0,0 km/h (0 Bft) 0,00 %
18.06.2015 08:55 16,9 C 67 % 1016,6 hPa 0,0 l/m 0,0 km/h (0 Bft) S 185 5 min 0,000 mm 1,0 UV-I 359 W/m 10,7 C 16,9 C 0,0 km/h (0 Bft) 0,00 %
18.06.2015 09:00 17,1 C 67 % 1016,5 hPa 0,0 l/m 0,0 km/h (0 Bft) S-SO 168 5 min 0,000 mm 1,0 UV-I 343 W/m 10,9 C 17,1 C 0,0 km/h (0 Bft) 0,00 %
18.06.2015 09:05 17,1 C 68 % 1016,6 hPa 0,0 l/m 0,0 km/h (0 Bft) S 182 5 min 0,000 mm 2,0 UV-I 354 W/m 11,1 C 17,1 C 0,0 km/h (0 Bft) 0,00 %
18.06.2015 09:10 16,9 C 67 % 1016,6 hPa 0,0 l/m 2,9 km/h (1 Bft) W-SW 255 0 min 0,000 mm 2,0 UV-I 285 W/m 10,7 C 16,9 C 4,0 km/h (1 Bft) 0,00 %
18.06.2015 09:15 16,9 C 68 % 1016,5 hPa 0,0 l/m 0,0 km/h (0 Bft) O-SO 119 0 min 0,000 mm 2,0 UV-I 244 W/m 11,0 C 16,9 C 0,0 km/h (0 Bft) 0,00 %
18.06.2015 09:20 17,2 C 67 % 1016,5 hPa 0,0 l/m 0,4 km/h (0 Bft) S-SW 207 0 min 0,000 mm 2,0 UV-I 216 W/m 11,0 C 17,2 C 4,0 km/h (1 Bft) 0,00 %
18.06.2015 09:25 17,6 C 67 % 1016,4 hPa 0,0 l/m 2,9 km/h (1 Bft) W-SW 255 0 min 0,000 mm 2,0 UV-I 200 W/m 11,4 C 17,6 C 4,0 km/h (1 Bft) 0,00 %
18.06.2015 09:30 17,6 C 66 % 1016,3 hPa 0,0 l/m 3,2 km/h (1 Bft) W-SW 256 0 min 0,000 mm 2,0 UV-I 202 W/m 11,2 C 17,6 C 4,0 km/h (1 Bft) 0,00 %
18.06.2015 09:35 17,5 C 65 % 1016,1 hPa 0,0 l/m 0,0 km/h (0 Bft) S-SO 147 0 min 0,000 mm 2,0 UV-I 215 W/m 10,8 C 17,5 C 0,0 km/h (0 Bft) 0,00 %
18.06.2015 09:40 17,5 C 65 % 1016,4 hPa 0,0 l/m 0,0 km/h (0 Bft) SO 141 0 min 0,000 mm 2,0 UV-I 233 W/m 10,8 C 17,5 C 0,0 km/h (0 Bft) 0,00 %
18.06.2015 09:45 17,8 C 64 % 1016,0 hPa 0,0 l/m 0,0 km/h (0 Bft) S-SW 202 0 min 0,000 mm 2,0 UV-I 246 W/m 10,9 C 17,8 C 0,0 km/h (0 Bft) 0,00 %
18.06.2015 09:50 18,1 C 64 % 1016,1 hPa 0,0 l/m 0,0 km/h (0 Bft) W-SW 255 0 min 0,000 mm 2,0 UV-I 253 W/m 11,2 C 18,1 C 0,0 km/h (0 Bft) 0,00 %
18.06.2015 09:55 18,0 C 65 % 1015,9 hPa 0,0 l/m 0,0 km/h (0 Bft) S 185 0 min 0,000 mm 2,0 UV-I 251 W/m 11,3 C 18,0 C 0,0 km/h (0 Bft) 0,00 %
18.06.2015 10:00 18,1 C 63 % 1016,0 hPa 0,0 l/m 0,7 km/h (0 Bft) S-SW 210 0 min 0,000 mm 2,0 UV-I 269 W/m 10,9 C 18,1 C 4,0 km/h (1 Bft) 0,00 %
18.06.2015 10:05 18,2 C 62 % 1016,0 hPa 0,0 l/m 0,0 km/h (0 Bft) SW 217 0 min 0,000 mm 2,0 UV-I 279 W/m 10,8 C 18,2 C 0,0 km/h (0 Bft) 0,00 %
18.06.2015 10:10 18,3 C 61 % 1016,0 hPa 0,0 l/m 0,0 km/h (0 Bft) S 189 0 min 0,000 mm 2,0 UV-I 283 W/m 10,6 C 18,3 C 0,0 km/h (0 Bft) 0,00 %
18.06.2015 10:15 18,5 C 61 % 1015,9 hPa 0,0 l/m 0,0 km/h (0 Bft) S-SW 208 0 min 0,000 mm 2,0 UV-I 283 W/m 10,8 C 18,5 C 0,0 km/h (0 Bft) 0,00 %
18.06.2015 10:20 18,8 C 61 % 1015,7 hPa 0,0 l/m 1,8 km/h (1 Bft) SW 228 0 min 0,000 mm 2,0 UV-I 289 W/m 11,1 C 18,8 C 4,0 km/h (1 Bft) 0,00 %
18.06.2015 10:25 18,8 C 61 % 1015,7 hPa 0,0 l/m 0,0 km/h (0 Bft) S 188 0 min 0,000 mm 2,0 UV-I 288 W/m 11,1 C 18,8 C 0,0 km/h (0 Bft) 0,00 %
18.06.2015 10:30 18,7 C 61 % 1015,6 hPa 0,0 l/m 0,4 km/h (0 Bft) S-SW 204 0 min 0,000 mm 1,0 UV-I 279 W/m 11,0 C 18,7 C 4,0 km/h (1 Bft) 0,00 %
18.06.2015 10:35 18,5 C 60 % 1015,7 hPa 0,0 l/m 0,0 km/h (0 Bft) W-SW 252 0 min 0,000 mm 1,0 UV-I 283 W/m 10,6 C 18,5 C 0,0 km/h (0 Bft) 0,00 %
18.06.2015 10:40 18,4 C 62 % 1015,6 hPa 0,0 l/m 0,0 km/h (0 Bft) S-SW 198 0 min 0,000 mm 1,0 UV-I 300 W/m 11,0 C 18,4 C 0,0 km/h (0 Bft) 0,00 %
18.06.2015 10:45 18,3 C 62 % 1015,6 hPa 0,0 l/m 0,0 km/h (0 Bft) S 174 0 min 0,000 mm 1,0 UV-I 330 W/m 10,9 C 18,3 C 0,0 km/h (0 Bft) 0,00 %
18.06.2015 10:50 18,3 C 59 % 1015,7 hPa 0,0 l/m 0,0 km/h (0 Bft) O-SO 108 0 min 0,000 mm 1,0 UV-I 342 W/m 10,1 C 18,3 C 0,0 km/h (0 Bft) 0,00 %
18.06.2015 10:55 18,4 C 59 % 1015,7 hPa 0,0 l/m 0,7 km/h (0 Bft) W-SW 255 0 min 0,000 mm 1,0 UV-I 343 W/m 10,2 C 18,4 C 4,0 km/h (1 Bft) 0,00 %
18.06.2015 11:00 18,5 C 61 % 1015,3 hPa 0,0 l/m 1,8 km/h (1 Bft) SW 224 0 min 0,000 mm 1,0 UV-I 334 W/m 10,8 C 18,5 C 4,0 km/h (1 Bft) 0,00 %
18.06.2015 11:05 18,6 C 60 % 1015,4 hPa 0,0 l/m 0,0 km/h (0 Bft) SO 130 0 min 0,000 mm 1,0 UV-I 328 W/m 10,7 C 18,6 C 0,0 km/h (0 Bft) 0,00 %
18.06.2015 11:10 18,6 C 57 % 1015,2 hPa 0,0 l/m 0,7 km/h (0 Bft) W-SW 240 0 min 0,000 mm 2,0 UV-I 333 W/m 9,9 C 18,6 C 4,0 km/h (1 Bft) 0,00 %
18.06.2015 11:15 18,8 C 56 % 1015,2 hPa 0,0 l/m 0,0 km/h (0 Bft) SW 229 0 min 0,000 mm 2,0 UV-I 318 W/m 9,8 C 18,8 C 0,0 km/h (0 Bft) 0,00 %
18.06.2015 11:20 19,0 C 55 % 1015,3 hPa 0,0 l/m 0,0 km/h (0 Bft) S-SO 163 0 min 0,000 mm 2,0 UV-I 271 W/m 9,8 C 19,0 C 0,0 km/h (0 Bft) 0,00 %
18.06.2015 11:25 19,3 C 53 % 1015,1 hPa 0,0 l/m 0,4 km/h (0 Bft) S-SO 149 0 min 0,000 mm 2,0 UV-I 244 W/m 9,5 C 19,3 C 4,0 km/h (1 Bft) 0,00 %
18.06.2015 11:30 19,6 C 54 % 1014,9 hPa 0,0 l/m 0,4 km/h (0 Bft) O 100 0 min 0,000 mm 2,0 UV-I 212 W/m 10,0 C 19,6 C 4,0 km/h (1 Bft) 0,00 %
18.06.2015 11:35 19,7 C 53 % 1014,8 hPa 0,0 l/m 6,5 km/h (2 Bft) W-SW 256 0 min 0,000 mm 3,0 UV-I 193 W/m 9,8 C 19,7 C 7,9 km/h (2 Bft) 0,00 %
18.06.2015 11:40 19,8 C 52 % 1014,9 hPa 0,0 l/m 1,8 km/h (1 Bft) S 189 0 min 0,000 mm 3,0 UV-I 195 W/m 9,7 C 19,8 C 4,0 km/h (1 Bft) 0,00 %
18.06.2015 11:45 19,8 C 51 % 1014,7 hPa 0,0 l/m 0,0 km/h (0 Bft) S 188 0 min 0,000 mm 3,0 UV-I 215 W/m 9,4 C 19,8 C 0,0 km/h (0 Bft) 0,00 %
18.06.2015 11:50 19,9 C 53 % 1014,7 hPa 0,0 l/m 0,0 km/h (0 Bft) S-SW 192 0 min 0,000 mm 3,0 UV-I 226 W/m 10,0 C 19,9 C 0,0 km/h (0 Bft) 0,00 %
18.06.2015 11:55 20,3 C 51 % 1014,6 hPa 0,0 l/m 2,2 km/h (1 Bft) SW 236 0 min 0,000 mm 2,0 UV-I 225 W/m 9,8 C 20,3 C 4,0 km/h (1 Bft) 0,00 %
18.06.2015 12:00 20,5 C 50 % 1014,5 hPa 0,0 l/m 0,4 km/h (0 Bft) N-NW 336 0 min 0,000 mm 2,0 UV-I 253 W/m 9,7 C 20,5 C 4,0 km/h (1 Bft) 0,00 %
18.06.2015 12:05 20,4 C 51 % 1014,6 hPa 0,0 l/m 1,8 km/h (1 Bft) S-SW 199 0 min 0,000 mm 2,0 UV-I 294 W/m 9,9 C 20,4 C 4,0 km/h (1 Bft) 0,00 %
18.06.2015 12:10 20,3 C 50 % 1014,4 hPa 0,0 l/m 3,2 km/h (1 Bft) W-SW 256 0 min 0,000 mm 2,0 UV-I 321 W/m 9,5 C 20,3 C 7,9 km/h (2 Bft) 0,00 %
18.06.2015 12:15 20,2 C 51 % 1014,4 hPa 0,0 l/m 0,4 km/h (0 Bft) SW 222 0 min 0,000 mm 2,0 UV-I 326 W/m 9,7 C 20,2 C 4,0 km/h (1 Bft) 0,00 %
18.06.2015 12:20 20,2 C 51 % 1014,5 hPa 0,0 l/m 1,8 km/h (1 Bft) S-SW 206 0 min 0,000 mm 3,0 UV-I 382 W/m 9,7 C 20,2 C 4,0 km/h (1 Bft) 0,00 %
18.06.2015 12:25 20,8 C 49 % 1014,3 hPa 0,0 l/m 1,8 km/h (1 Bft) W-SW 242 0 min 0,000 mm 3,0 UV-I 433 W/m 9,7 C 20,8 C 4,0 km/h (1 Bft) 0,00 %
18.06.2015 12:30 21,0 C 50 % 1014,2 hPa 0,0 l/m 6,5 km/h (2 Bft) SW 221 5 min 0,000 mm 4,0 UV-I 495 W/m 10,2 C 21,0 C 7,9 km/h (2 Bft) 0,00 %
18.06.2015 12:35 20,8 C 49 % 1014,3 hPa 0,0 l/m 5,4 km/h (1 Bft) W-SW 237 0 min 0,000 mm 3,0 UV-I 488 W/m 9,7 C 20,8 C 7,9 km/h (2 Bft) 0,00 %
18.06.2015 12:40 20,8 C 49 % 1014,3 hPa 0,0 l/m 10,4 km/h (2 Bft) SW 224 5 min 0,000 mm 3,0 UV-I 515 W/m 9,7 C 19,4 C 15,8 km/h (3 Bft) 0,00 %
18.06.2015 12:45 20,7 C 50 % 1014,1 hPa 0,0 l/m 0,4 km/h (0 Bft) N-NW 342 0 min 0,000 mm 3,0 UV-I 459 W/m 9,9 C 20,7 C 4,0 km/h (1 Bft) 0,00 %
18.06.2015 12:50 20,7 C 49 % 1014,0 hPa 0,0 l/m 6,5 km/h (2 Bft) W-NW 291 0 min 0,000 mm 3,0 UV-I 425 W/m 9,6 C 20,7 C 7,9 km/h (2 Bft) 0,00 %
18.06.2015 12:55 20,5 C 50 % 1014,2 hPa 0,0 l/m 5,8 km/h (2 Bft) W-SW 256 0 min 0,000 mm 2,0 UV-I 372 W/m 9,7 C 20,5 C 7,9 km/h (2 Bft) 0,00 %
18.06.2015 13:00 20,3 C 51 % 1014,0 hPa 0,0 l/m 7,9 km/h (2 Bft) W-SW 256 0 min 0,000 mm 2,0 UV-I 328 W/m 9,8 C 19,7 C 11,9 km/h (2 Bft) 0,00 %
18.06.2015 13:05 20,1 C 51 % 1013,7 hPa 0,0 l/m 4,0 km/h (1 Bft) W 267 0 min 0,000 mm 2,0 UV-I 392 W/m 9,6 C 20,1 C 7,9 km/h (2 Bft) 0,00 %
18.06.2015 13:10 20,0 C 50 % 1014,2 hPa 0,0 l/m 13,3 km/h (3 Bft) W 263 0 min 0,000 mm 3,0 UV-I 440 W/m 9,3 C 17,7 C 19,8 km/h (3 Bft) 0,00 %
18.06.2015 13:15 20,1 C 49 % 1013,9 hPa 0,0 l/m 5,4 km/h (1 Bft) S 181 5 min 0,000 mm 3,0 UV-I 556 W/m 9,0 C 20,1 C 7,9 km/h (2 Bft) 0,00 %
18.06.2015 13:20 20,4 C 49 % 1013,8 hPa 0,0 l/m 4,3 km/h (1 Bft) S-SW 211 5 min 0,000 mm 2,0 UV-I 504 W/m 9,3 C 20,4 C 7,9 km/h (2 Bft) 0,00 %
18.06.2015 13:25 20,5 C 49 % 1013,8 hPa 0,0 l/m 1,4 km/h (1 Bft) SW 223 5 min 0,000 mm 2,0 UV-I 642 W/m 9,4 C 20,5 C 4,0 km/h (1 Bft) 0,00 %
18.06.2015 13:30 20,4 C 51 % 1013,7 hPa 0,0 l/m 4,0 km/h (1 Bft) W-SW 256 5 min 0,000 mm 2,0 UV-I 506 W/m 9,9 C 20,4 C 4,0 km/h (1 Bft) 0,00 %
18.06.2015 13:35 20,1 C 51 % 1013,6 hPa 0,0 l/m 1,4 km/h (1 Bft) S-SO 150 5 min 0,000 mm 1,0 UV-I 516 W/m 9,6 C 20,1 C 4,0 km/h (1 Bft) 0,00 %
18.06.2015 13:40 19,6 C 52 % 1013,9 hPa 0,0 l/m 8,3 km/h (2 Bft) SW 231 5 min 0,000 mm 2,0 UV-I 511 W/m 9,5 C 18,8 C 11,9 km/h (2 Bft) 0,00 %
18.06.2015 13:45 19,4 C 52 % 1013,8 hPa 0,0 l/m 0,7 km/h (0 Bft) NW 304 0 min 0,000 mm 2,0 UV-I 426 W/m 9,3 C 19,4 C 4,0 km/h (1 Bft) 0,00 %
18.06.2015 13:50 19,5 C 52 % 1013,7 hPa 0,0 l/m 4,3 km/h (1 Bft) W-SW 252 0 min 0,000 mm 2,0 UV-I 410 W/m 9,4 C 19,5 C 7,9 km/h (2 Bft) 0,00 %
18.06.2015 13:55 19,5 C 52 % 1013,7 hPa 0,0 l/m 3,2 km/h (1 Bft) O-NO 69 0 min 0,000 mm 2,0 UV-I 362 W/m 9,4 C 19,5 C 7,9 km/h (2 Bft) 0,00 %
18.06.2015 14:00 19,5 C 53 % 1013,6 hPa 0,0 l/m 0,4 km/h (0 Bft) W-SW 256 0 min 0,000 mm 2,0 UV-I 425 W/m 9,7 C 19,5 C 4,0 km/h (1 Bft) 0,00 %
18.06.2015 14:05 19,7 C 53 % 1013,7 hPa 0,0 l/m 0,4 km/h (0 Bft) N 351 5 min 0,000 mm 3,0 UV-I 753 W/m 9,8 C 19,7 C 4,0 km/h (1 Bft) 0,00 %
18.06.2015 14:10 20,0 C 52 % 1013,5 hPa 0,0 l/m 3,2 km/h (1 Bft) S-SO 167 0 min 0,000 mm 3,0 UV-I 387 W/m 9,8 C 20,0 C 7,9 km/h (2 Bft) 0,00 %
18.06.2015 14:15 20,3 C 51 % 1013,4 hPa 0,0 l/m 1,4 km/h (1 Bft) N 353 0 min 0,000 mm 3,0 UV-I 434 W/m 9,8 C 20,3 C 4,0 km/h (1 Bft) 0,00 %
18.06.2015 14:20 20,4 C 50 % 1013,4 hPa 0,0 l/m 1,4 km/h (1 Bft) S-SO 164 0 min 0,000 mm 5,0 UV-I 325 W/m 9,6 C 20,4 C 4,0 km/h (1 Bft) 0,00 %
18.06.2015 14:25 20,8 C 47 % 1013,1 hPa 0,0 l/m 5,8 km/h (2 Bft) W 269 0 min 0,000 mm 4,0 UV-I 187 W/m 9,1 C 20,8 C 7,9 km/h (2 Bft) 0,00 %
18.06.2015 14:30 20,9 C 49 % 1013,1 hPa 0,0 l/m 0,7 km/h (0 Bft) O-NO 66 0 min 0,000 mm 4,0 UV-I 239 W/m 9,8 C 20,9 C 4,0 km/h (1 Bft) 0,00 %
18.06.2015 14:35 21,0 C 49 % 1013,1 hPa 0,0 l/m 3,2 km/h (1 Bft) SO 133 0 min 0,000 mm 3,0 UV-I 324 W/m 9,9 C 21,0 C 7,9 km/h (2 Bft) 0,00 %
18.06.2015 14:40 21,2 C 47 % 1013,1 hPa 0,0 l/m 9,4 km/h (2 Bft) W-SW 254 0 min 0,000 mm 3,0 UV-I 336 W/m 9,4 C 20,1 C 11,9 km/h (2 Bft) 0,00 %
18.06.2015 14:45 21,4 C 46 % 1012,9 hPa 0,0 l/m 6,8 km/h (2 Bft) W-SW 256 0 min 0,000 mm 3,0 UV-I 275 W/m 9,3 C 21,3 C 11,9 km/h (2 Bft) 0,00 %
18.06.2015 14:50 21,2 C 46 % 1012,8 hPa 0,0 l/m 1,4 km/h (1 Bft) SW 214 0 min 0,000 mm 2,0 UV-I 366 W/m 9,1 C 21,2 C 4,0 km/h (1 Bft) 0,00 %
18.06.2015 14:55 20,5 C 50 % 1013,1 hPa 0,0 l/m 0,7 km/h (0 Bft) N-NW 336 5 min 0,000 mm 2,0 UV-I 486 W/m 9,7 C 20,5 C 4,0 km/h (1 Bft) 0,00 %
18.06.2015 15:00 20,1 C 49 % 1013,0 hPa 0,0 l/m 1,4 km/h (1 Bft) SO 141 0 min 0,000 mm 1,0 UV-I 391 W/m 9,0 C 20,1 C 4,0 km/h (1 Bft) 0,00 %
18.06.2015 15:05 19,9 C 50 % 1013,1 hPa 0,0 l/m 14,0 km/h (3 Bft) W 280 5 min 0,000 mm 1,0 UV-I 483 W/m 9,2 C 17,4 C 19,8 km/h (3 Bft) 0,00 %
18.06.2015 15:10 19,6 C 50 % 1013,2 hPa 0,0 l/m 7,9 km/h (2 Bft) S-SW 196 5 min 0,000 mm 1,0 UV-I 646 W/m 8,9 C 19,0 C 11,9 km/h (2 Bft) 0,00 %
18.06.2015 15:15 19,3 C 50 % 1013,2 hPa 0,0 l/m 7,9 km/h (2 Bft) W-SW 256 5 min 0,000 mm 1,0 UV-I 633 W/m 8,6 C 18,7 C 11,9 km/h (2 Bft) 0,00 %
18.06.2015 15:20 19,2 C 53 % 1013,2 hPa 0,0 l/m 0,0 km/h (0 Bft) O-SO 115 5 min 0,000 mm 1,0 UV-I 665 W/m 9,4 C 19,2 C 0,0 km/h (0 Bft) 0,00 %
18.06.2015 15:25 19,1 C 53 % 1013,3 hPa 0,0 l/m 4,3 km/h (1 Bft) W-SW 238 5 min 0,000 mm 1,0 UV-I 574 W/m 9,3 C 19,1 C 7,9 km/h (2 Bft) 0,00 %
18.06.2015 15:30 18,9 C 53 % 1013,3 hPa 0,0 l/m 5,4 km/h (1 Bft) W-SW 240 5 min 0,000 mm 1,0 UV-I 689 W/m 9,1 C 18,9 C 7,9 km/h (2 Bft) 0,00 %
18.06.2015 15:35 18,5 C 54 % 1013,5 hPa 0,0 l/m 0,4 km/h (0 Bft) O-SO 123 5 min 0,000 mm 1,0 UV-I 452 W/m 9,0 C 18,5 C 4,0 km/h (1 Bft) 0,00 %
18.06.2015 15:40 18,3 C 56 % 1013,3 hPa 0,0 l/m 7,9 km/h (2 Bft) W-NW 288 0 min 0,000 mm 1,0 UV-I 363 W/m 9,4 C 17,6 C 11,9 km/h (2 Bft) 0,00 %
18.06.2015 15:45 18,2 C 58 % 1013,4 hPa 0,0 l/m 1,8 km/h (1 Bft) W 281 0 min 0,000 mm 1,0 UV-I 250 W/m 9,8 C 18,2 C 4,0 km/h (1 Bft) 0,00 %
18.06.2015 15:50 18,0 C 61 % 1013,3 hPa 0,0 l/m 0,0 km/h (0 Bft) SW 220 0 min 0,000 mm 1,0 UV-I 216 W/m 10,4 C 18,0 C 0,0 km/h (0 Bft) 0,00 %
18.06.2015 15:55 17,9 C 61 % 1013,1 hPa 0,0 l/m 5,8 km/h (2 Bft) W-NW 299 0 min 0,000 mm 1,0 UV-I 191 W/m 10,3 C 17,9 C 7,9 km/h (2 Bft) 0,00 %
18.06.2015 16:00 17,8 C 62 % 1013,1 hPa 0,0 l/m 1,4 km/h (1 Bft) SW 228 0 min 0,000 mm 1,0 UV-I 201 W/m 10,4 C 17,8 C 7,9 km/h (2 Bft) 0,00 %
18.06.2015 16:05 17,8 C 62 % 1013,1 hPa 0,0 l/m 4,7 km/h (1 Bft) W-SW 252 0 min 0,000 mm 1,0 UV-I 198 W/m 10,4 C 17,8 C 7,9 km/h (2 Bft) 0,00 %
18.06.2015 16:10 17,8 C 62 % 1013,0 hPa 0,0 l/m 0,0 km/h (0 Bft) N-NW 335 0 min 0,000 mm 1,0 UV-I 167 W/m 10,4 C 17,8 C 0,0 km/h (0 Bft) 0,00 %
18.06.2015 16:15 17,8 C 62 % 1013,0 hPa 0,0 l/m 3,2 km/h (1 Bft) W-SW 251 0 min 0,000 mm 1,0 UV-I 147 W/m 10,4 C 17,8 C 7,9 km/h (2 Bft) 0,00 %
18.06.2015 16:20 17,8 C 63 % 1013,0 hPa 0,0 l/m 4,7 km/h (1 Bft) SW 227 0 min 0,000 mm 1,0 UV-I 116 W/m 10,7 C 17,8 C 7,9 km/h (2 Bft) 0,00 %
18.06.2015 16:25 17,7 C 64 % 1013,1 hPa 0,0 l/m 0,0 km/h (0 Bft) S 178 0 min 0,000 mm 1,0 UV-I 103 W/m 10,8 C 17,7 C 0,0 km/h (0 Bft) 0,00 %
18.06.2015 16:30 17,5 C 64 % 1013,1 hPa 0,0 l/m 7,2 km/h (2 Bft) W-SW 252 0 min 0,000 mm 1,0 UV-I 94 W/m 10,6 C 17,1 C 11,9 km/h (2 Bft) 0,00 %
18.06.2015 16:35 17,3 C 65 % 1013,1 hPa 0,0 l/m 2,2 km/h (1 Bft) SW 216 0 min 0,000 mm 1,0 UV-I 103 W/m 10,7 C 17,3 C 4,0 km/h (1 Bft) 0,00 %
18.06.2015 16:40 17,2 C 67 % 1013,0 hPa 0,0 l/m 2,9 km/h (1 Bft) S-SW 200 0 min 0,000 mm 1,0 UV-I 112 W/m 11,0 C 17,2 C 4,0 km/h (1 Bft) 0,00 %
18.06.2015 16:45 17,1 C 68 % 1013,1 hPa 0,0 l/m 2,2 km/h (1 Bft) S 169 0 min 0,000 mm 1,0 UV-I 107 W/m 11,1 C 17,1 C 4,0 km/h (1 Bft) 0,00 %
18.06.2015 16:50 16,8 C 69 % 1013,0 hPa 0,0 l/m 9,4 km/h (2 Bft) N-NW 336 0 min 0,000 mm 1,0 UV-I 107 W/m 11,1 C 15,4 C 19,8 km/h (3 Bft) 0,00 %
18.06.2015 16:55 16,5 C 70 % 1013,1 hPa 0,0 l/m 3,2 km/h (1 Bft) NO 56 0 min 0,000 mm 1,0 UV-I 111 W/m 11,0 C 16,5 C 4,0 km/h (1 Bft) 0,00 %
18.06.2015 17:00 16,3 C 71 % 1013,3 hPa 0,0 l/m 4,0 km/h (1 Bft) SO 132 0 min 0,000 mm 1,0 UV-I 130 W/m 11,0 C 16,3 C 7,9 km/h (2 Bft) 0,00 %
18.06.2015 17:05 16,2 C 73 % 1013,3 hPa 0,0 l/m 6,8 km/h (2 Bft) W-SW 253 0 min 0,000 mm 1,0 UV-I 100 W/m 11,4 C 16,0 C 11,9 km/h (2 Bft) 0,00 %
18.06.2015 17:10 16,1 C 73 % 1013,6 hPa 0,0 l/m 1,4 km/h (1 Bft) NO 37 0 min 0,000 mm 0,0 UV-I 84 W/m 11,3 C 16,1 C 4,0 km/h (1 Bft) 0,00 %
18.06.2015 17:15 16,1 C 73 % 1013,2 hPa 0,0 l/m 1,8 km/h (1 Bft) W-NW 303 0 min 0,000 mm 0,0 UV-I 93 W/m 11,3 C 16,1 C 4,0 km/h (1 Bft) 0,00 %
18.06.2015 17:20 15,9 C 75 % 1013,3 hPa 0,0 l/m 0,0 km/h (0 Bft) O-SO 114 0 min 0,000 mm 0,0 UV-I 87 W/m 11,5 C 15,9 C 0,0 km/h (0 Bft) 0,00 %
18.06.2015 17:25 15,8 C 76 % 1013,3 hPa 0,0 l/m 1,8 km/h (1 Bft) W-SW 254 0 min 0,000 mm 0,0 UV-I 82 W/m 11,6 C 15,8 C 4,0 km/h (1 Bft) 0,00 %
18.06.2015 17:30 15,7 C 78 % 1013,5 hPa 0,0 l/m 0,7 km/h (0 Bft) O-SO 120 0 min 0,000 mm 0,0 UV-I 88 W/m 11,9 C 15,7 C 4,0 km/h (1 Bft) 0,00 %
18.06.2015 17:35 15,6 C 79 % 1013,3 hPa 0,0 l/m 1,8 km/h (1 Bft) O 95 0 min 0,000 mm 0,0 UV-I 96 W/m 12,0 C 15,6 C 4,0 km/h (1 Bft) 0,00 %
18.06.2015 17:40 15,4 C 80 % 1013,4 hPa 0,0 l/m 0,7 km/h (0 Bft) S-SO 152 0 min 0,000 mm 0,0 UV-I 99 W/m 12,0 C 15,4 C 4,0 km/h (1 Bft) 0,00 %
18.06.2015 17:45 15,3 C 82 % 1013,3 hPa 0,0 l/m 0,0 km/h (0 Bft) O-SO 115 0 min 0,000 mm 0,0 UV-I 68 W/m 12,2 C 15,3 C 0,0 km/h (0 Bft) 0,00 %
18.06.2015 17:50 15,1 C 83 % 1013,2 hPa 0,0 l/m 0,0 km/h (0 Bft) S 175 0 min 0,000 mm 0,0 UV-I 78 W/m 12,2 C 15,1 C 0,0 km/h (0 Bft) 0,00 %
18.06.2015 17:55 14,9 C 85 % 1013,4 hPa 0,0 l/m 0,4 km/h (0 Bft) NW 315 0 min 0,000 mm 0,0 UV-I 81 W/m 12,4 C 14,9 C 4,0 km/h (1 Bft) 0,00 %
18.06.2015 18:00 14,7 C 87 % 1013,5 hPa 0,0 l/m 0,4 km/h (0 Bft) W-SW 256 0 min 0,000 mm 0,0 UV-I 64 W/m 12,6 C 14,7 C 4,0 km/h (1 Bft) 0,00 %
18.06.2015 18:05 14,4 C 88 % 1013,2 hPa 0,0 l/m 0,0 km/h (0 Bft) S 182 0 min 0,000 mm 0,0 UV-I 47 W/m 12,4 C 14,4 C 0,0 km/h (0 Bft) 0,00 %
18.06.2015 18:10 14,4 C 90 % 1013,2 hPa 0,0 l/m 0,0 km/h (0 Bft) SW 230 0 min 0,000 mm 0,0 UV-I 55 W/m 12,8 C 14,4 C 0,0 km/h (0 Bft) 0,00 %
18.06.2015 18:15 14,3 C 90 % 1013,2 hPa 0,0 l/m 0,0 km/h (0 Bft) S 191 0 min 0,000 mm 0,0 UV-I 57 W/m 12,7 C 14,3 C 0,0 km/h (0 Bft) 0,00 %
18.06.2015 18:20 14,3 C 90 % 1013,5 hPa 0,0 l/m 0,0 km/h (0 Bft) O-SO 106 0 min 0,000 mm 0,0 UV-I 58 W/m 12,7 C 14,3 C 0,0 km/h (0 Bft) 0,00 %
18.06.2015 18:25 14,3 C 90 % 1013,4 hPa 0,0 l/m 0,0 km/h (0 Bft) SW 216 0 min 0,000 mm 0,0 UV-I 77 W/m 12,7 C 14,3 C 0,0 km/h (0 Bft) 0,00 %
18.06.2015 18:30 14,4 C 90 % 1013,2 hPa 0,3 l/m 0,0 km/h (0 Bft) SO 134 0 min 0,000 mm 0,0 UV-I 43 W/m 12,8 C 14,4 C 0,0 km/h (0 Bft) 0,00 %
18.06.2015 18:35 14,4 C 90 % 1013,5 hPa 0,0 l/m 0,0 km/h (0 Bft) W-SW 254 0 min 0,000 mm 0,0 UV-I 35 W/m 12,8 C 14,4 C 0,0 km/h (0 Bft) 0,00 %
18.06.2015 18:40 14,4 C 91 % 1013,1 hPa 0,0 l/m 0,7 km/h (0 Bft) SW 226 0 min 0,000 mm 0,0 UV-I 22 W/m 12,9 C 14,4 C 4,0 km/h (1 Bft) 0,00 %
18.06.2015 18:45 14,4 C 91 % 1013,1 hPa 0,0 l/m 0,4 km/h (0 Bft) O-NO 61 0 min 0,000 mm 0,0 UV-I 18 W/m 12,9 C 14,4 C 4,0 km/h (1 Bft) 0,00 %
18.06.2015 18:50 14,4 C 91 % 1013,1 hPa 0,0 l/m 1,8 km/h (1 Bft) W-SW 243 0 min 0,000 mm 0,0 UV-I 17 W/m 12,9 C 14,4 C 4,0 km/h (1 Bft) 0,00 %
18.06.2015 18:55 14,4 C 91 % 1013,1 hPa 0,0 l/m 1,8 km/h (1 Bft) N 11 0 min 0,000 mm 0,0 UV-I 24 W/m 12,9 C 14,4 C 4,0 km/h (1 Bft) 0,00 %
18.06.2015 19:00 14,4 C 91 % 1013,1 hPa 0,0 l/m 0,0 km/h (0 Bft) O-SO 102 0 min 0,000 mm 0,0 UV-I 23 W/m 12,9 C 14,4 C 0,0 km/h (0 Bft) 0,00 %
18.06.2015 19:05 14,4 C 92 % 1013,2 hPa 0,0 l/m 0,0 km/h (0 Bft) SO 137 0 min 0,000 mm 0,0 UV-I 20 W/m 13,1 C 14,4 C 0,0 km/h (0 Bft) 0,00 %
18.06.2015 19:10 14,4 C 92 % 1012,9 hPa 0,0 l/m 1,4 km/h (1 Bft) N-NW 345 0 min 0,000 mm 0,0 UV-I 17 W/m 13,1 C 14,4 C 4,0 km/h (1 Bft) 0,00 %
18.06.2015 19:15 14,4 C 92 % 1013,0 hPa 0,0 l/m 0,4 km/h (0 Bft) N-NW 341 0 min 0,000 mm 0,0 UV-I 15 W/m 13,1 C 14,4 C 4,0 km/h (1 Bft) 0,00 %
18.06.2015 19:20 14,4 C 92 % 1012,9 hPa 0,0 l/m 0,0 km/h (0 Bft) N-NW 334 0 min 0,000 mm 0,0 UV-I 11 W/m 13,1 C 14,4 C 0,0 km/h (0 Bft) 0,00 %
18.06.2015 19:25 14,5 C 92 % 1013,1 hPa 0,0 l/m 0,4 km/h (0 Bft) O-SO 119 0 min 0,000 mm 0,0 UV-I 9 W/m 13,2 C 14,5 C 4,0 km/h (1 Bft) 0,00 %
18.06.2015 19:30 14,5 C 92 % 1012,9 hPa 0,0 l/m 0,7 km/h (0 Bft) W-NW 282 0 min 0,000 mm 0,0 UV-I 18 W/m 13,2 C 14,5 C 4,0 km/h (1 Bft) 0,00 %
18.06.2015 19:35 14,5 C 92 % 1012,9 hPa 0,0 l/m 0,0 km/h (0 Bft) N-NW 334 0 min 0,000 mm 0,0 UV-I 18 W/m 13,2 C 14,5 C 0,0 km/h (0 Bft) 0,00 %
18.06.2015 19:40 14,5 C 91 % 1013,0 hPa 0,0 l/m 0,0 km/h (0 Bft) O-SO 119 0 min 0,000 mm 0,0 UV-I 18 W/m 13,0 C 14,5 C 0,0 km/h (0 Bft) 0,00 %
18.06.2015 19:45 14,5 C 91 % 1012,8 hPa 0,0 l/m 0,4 km/h (0 Bft) S 177 0 min 0,000 mm 0,0 UV-I 16 W/m 13,0 C 14,5 C 4,0 km/h (1 Bft) 0,00 %
18.06.2015 19:50 14,5 C 91 % 1012,8 hPa 0,0 l/m 1,8 km/h (1 Bft) O-NO 68 0 min 0,000 mm 0,0 UV-I 15 W/m 13,0 C 14,5 C 4,0 km/h (1 Bft) 0,00 %
18.06.2015 19:55 14,5 C 91 % 1012,9 hPa 0,0 l/m 0,0 km/h (0 Bft) O-NO 78 0 min 0,000 mm 0,0 UV-I 7 W/m 13,0 C 14,5 C 0,0 km/h (0 Bft) 0,00 %
18.06.2015 20:00 14,5 C 91 % 1012,9 hPa 0,0 l/m 0,4 km/h (0 Bft) O 81 0 min 0,000 mm 0,0 UV-I 5 W/m 13,0 C 14,5 C 4,0 km/h (1 Bft) 0,00 %
18.06.2015 20:05 14,4 C 91 % 1012,9 hPa 0,0 l/m 0,0 km/h (0 Bft) S-SO 166 0 min 0,000 mm 0,0 UV-I 1 W/m 12,9 C 14,4 C 0,0 km/h (0 Bft) 0,00 %
18.06.2015 20:10 14,4 C 91 % 1013,0 hPa 0,0 l/m 1,8 km/h (1 Bft) W-NW 301 0 min 0,000 mm 0,0 UV-I 0 W/m 12,9 C 14,4 C 4,0 km/h (1 Bft) 0,00 %
18.06.2015 20:15 14,4 C 91 % 1012,8 hPa 0,0 l/m 0,0 km/h (0 Bft) O-SO 118 0 min 0,000 mm 0,0 UV-I 0 W/m 12,9 C 14,4 C 0,0 km/h (0 Bft) 0,00 %
18.06.2015 20:20 14,4 C 91 % 1012,9 hPa 0,0 l/m 0,7 km/h (0 Bft) W 263 0 min 0,000 mm 0,0 UV-I 0 W/m 12,9 C 14,4 C 4,0 km/h (1 Bft) 0,00 %
18.06.2015 20:25 14,4 C 91 % 1012,9 hPa 0,0 l/m 0,0 km/h (0 Bft) N-NW 338 0 min 0,000 mm 0,0 UV-I 0 W/m 12,9 C 14,4 C 0,0 km/h (0 Bft) 0,00 %
18.06.2015 20:30 14,4 C 91 % 1013,0 hPa 0,0 l/m 0,4 km/h (0 Bft) O 80 0 min 0,000 mm 0,0 UV-I 0 W/m 12,9 C 14,4 C 4,0 km/h (1 Bft) 0,00 %
18.06.2015 20:35 14,4 C 92 % 1013,0 hPa 0,0 l/m 1,4 km/h (1 Bft) N-NO 21 0 min 0,000 mm 0,0 UV-I 0 W/m 13,1 C 14,4 C 7,9 km/h (2 Bft) 0,00 %
18.06.2015 20:40 14,4 C 92 % 1012,9 hPa 0,0 l/m 0,7 km/h (0 Bft) SO 124 0 min 0,000 mm 0,0 UV-I 0 W/m 13,1 C 14,4 C 4,0 km/h (1 Bft) 0,00 %
18.06.2015 20:45 14,3 C 92 % 1012,9 hPa 0,0 l/m 4,0 km/h (1 Bft) N-NO 23 0 min 0,000 mm 0,0 UV-I 0 W/m 13,0 C 14,3 C 11,9 km/h (2 Bft) 0,00 %
18.06.2015 20:50 14,3 C 92 % 1012,9 hPa 0,0 l/m 5,4 km/h (1 Bft) O 86 0 min 0,000 mm 0,0 UV-I 0 W/m 13,0 C 14,3 C 11,9 km/h (2 Bft) 0,00 %
18.06.2015 20:55 14,3 C 92 % 1013,1 hPa 0,0 l/m 2,9 km/h (1 Bft) S 171 0 min 0,000 mm 0,0 UV-I 0 W/m 13,0 C 14,3 C 4,0 km/h (1 Bft) 0,00 %
18.06.2015 21:00 14,3 C 93 % 1013,1 hPa 0,0 l/m 1,8 km/h (1 Bft) W-SW 255 0 min 0,000 mm 0,0 UV-I 0 W/m 13,2 C 14,3 C 4,0 km/h (1 Bft) 0,00 %
18.06.2015 21:05 14,3 C 93 % 1013,1 hPa 0,0 l/m 0,7 km/h (0 Bft) O 84 0 min 0,000 mm 0,0 UV-I 0 W/m 13,2 C 14,3 C 4,0 km/h (1 Bft) 0,00 %
18.06.2015 21:10 14,3 C 93 % 1013,2 hPa 0,0 l/m 0,0 km/h (0 Bft) NO 46 0 min 0,000 mm 0,0 UV-I 0 W/m 13,2 C 14,3 C 0,0 km/h (0 Bft) 0,00 %
18.06.2015 21:15 14,3 C 93 % 1012,9 hPa 0,0 l/m 0,7 km/h (0 Bft) O-SO 102 0 min 0,000 mm 0,0 UV-I 0 W/m 13,2 C 14,3 C 4,0 km/h (1 Bft) 0,00 %
18.06.2015 21:20 14,3 C 93 % 1012,7 hPa 0,0 l/m 0,0 km/h (0 Bft) NO 43 0 min 0,000 mm 0,0 UV-I 0 W/m 13,2 C 14,3 C 0,0 km/h (0 Bft) 0,00 %
18.06.2015 21:25 14,3 C 93 % 1012,8 hPa 0,0 l/m 5,4 km/h (1 Bft) W-SW 251 0 min 0,000 mm 0,0 UV-I 0 W/m 13,2 C 14,3 C 7,9 km/h (2 Bft) 0,00 %
18.06.2015 21:30 14,3 C 93 % 1012,7 hPa 0,0 l/m 2,2 km/h (1 Bft) SW 216 0 min 0,000 mm 0,0 UV-I 0 W/m 13,2 C 14,3 C 4,0 km/h (1 Bft) 0,00 %
18.06.2015 21:35 14,3 C 93 % 1012,8 hPa 0,0 l/m 2,2 km/h (1 Bft) W-SW 256 0 min 0,000 mm 0,0 UV-I 0 W/m 13,2 C 14,3 C 4,0 km/h (1 Bft) 0,00 %
18.06.2015 21:40 14,3 C 93 % 1012,8 hPa 0,0 l/m 0,4 km/h (0 Bft) N 355 0 min 0,000 mm 0,0 UV-I 0 W/m 13,2 C 14,3 C 4,0 km/h (1 Bft) 0,00 %
18.06.2015 21:45 14,3 C 93 % 1012,8 hPa 0,0 l/m 0,0 km/h (0 Bft) S 169 0 min 0,000 mm 0,0 UV-I 0 W/m 13,2 C 14,3 C 0,0 km/h (0 Bft) 0,00 %
18.06.2015 21:50 14,3 C 94 % 1012,7 hPa 0,0 l/m 0,4 km/h (0 Bft) SW 228 0 min 0,000 mm 0,0 UV-I 0 W/m 13,3 C 14,3 C 4,0 km/h (1 Bft) 0,00 %
18.06.2015 21:55 14,3 C 93 % 1012,8 hPa 0,0 l/m 0,4 km/h (0 Bft) N 349 0 min 0,000 mm 0,0 UV-I 0 W/m 13,2 C 14,3 C 4,0 km/h (1 Bft) 0,00 %
18.06.2015 22:00 14,4 C 93 % 1012,6 hPa 0,0 l/m 0,7 km/h (0 Bft) O-SO 117 0 min 0,000 mm 0,0 UV-I 0 W/m 13,3 C 14,4 C 4,0 km/h (1 Bft) 0,00 %
18.06.2015 22:05 14,4 C 93 % 1012,7 hPa 0,0 l/m 0,4 km/h (0 Bft) N-NO 28 0 min 0,000 mm 0,0 UV-I 0 W/m 13,3 C 14,4 C 4,0 km/h (1 Bft) 0,00 %
18.06.2015 22:10 14,4 C 93 % 1012,8 hPa 0,0 l/m 0,4 km/h (0 Bft) W-NW 285 0 min 0,000 mm 0,0 UV-I 0 W/m 13,3 C 14,4 C 4,0 km/h (1 Bft) 0,00 %
18.06.2015 22:15 14,4 C 93 % 1012,8 hPa 0,0 l/m 0,0 km/h (0 Bft) SW 214 0 min 0,000 mm 0,0 UV-I 0 W/m 13,3 C 14,4 C 0,0 km/h (0 Bft) 0,00 %
18.06.2015 22:20 14,4 C 93 % 1012,8 hPa 0,0 l/m 0,4 km/h (0 Bft) W-SW 253 0 min 0,000 mm 0,0 UV-I 0 W/m 13,3 C 14,4 C 4,0 km/h (1 Bft) 0,00 %
18.06.2015 22:25 14,4 C 93 % 1012,7 hPa 0,0 l/m 0,0 km/h (0 Bft) S 191 0 min 0,000 mm 0,0 UV-I 0 W/m 13,3 C 14,4 C 0,0 km/h (0 Bft) 0,00 %
18.06.2015 22:30 14,4 C 93 % 1012,7 hPa 0,0 l/m 0,4 km/h (0 Bft) W-SW 253 0 min 0,000 mm 0,0 UV-I 0 W/m 13,3 C 14,4 C 4,0 km/h (1 Bft) 0,00 %
18.06.2015 22:35 14,5 C 93 % 1012,7 hPa 0,0 l/m 0,0 km/h (0 Bft) S 183 0 min 0,000 mm 0,0 UV-I 0 W/m 13,4 C 14,5 C 0,0 km/h (0 Bft) 0,00 %
18.06.2015 22:40 14,5 C 93 % 1012,8 hPa 0,0 l/m 1,4 km/h (1 Bft) S-SW 195 0 min 0,000 mm 0,0 UV-I 0 W/m 13,4 C 14,5 C 4,0 km/h (1 Bft) 0,00 %
18.06.2015 22:45 14,5 C 93 % 1012,6 hPa 0,3 l/m 0,4 km/h (0 Bft) O-SO 123 0 min 0,000 mm 0,0 UV-I 0 W/m 13,4 C 14,5 C 4,0 km/h (1 Bft) 0,00 %
18.06.2015 22:50 14,4 C 94 % 1012,8 hPa 0,0 l/m 0,0 km/h (0 Bft) O-SO 108 0 min 0,000 mm 0,0 UV-I 0 W/m 13,4 C 14,4 C 0,0 km/h (0 Bft) 0,00 %
18.06.2015 22:55 14,4 C 94 % 1012,4 hPa 0,0 l/m 0,4 km/h (0 Bft) S 190 0 min 0,000 mm 0,0 UV-I 0 W/m 13,4 C 14,4 C 4,0 km/h (1 Bft) 0,00 %
18.06.2015 23:00 14,4 C 94 % 1012,6 hPa 0,0 l/m 0,4 km/h (0 Bft) S-SW 192 0 min 0,000 mm 0,0 UV-I 0 W/m 13,4 C 14,4 C 4,0 km/h (1 Bft) 0,00 %
18.06.2015 23:05 14,4 C 94 % 1012,5 hPa 0,0 l/m 0,0 km/h (0 Bft) N-NW 344 0 min 0,000 mm 0,0 UV-I 0 W/m 13,4 C 14,4 C 0,0 km/h (0 Bft) 0,00 %
18.06.2015 23:10 14,4 C 95 % 1012,3 hPa 0,0 l/m 0,0 km/h (0 Bft) S-SO 154 0 min 0,000 mm 0,0 UV-I 0 W/m 13,6 C 14,4 C 0,0 km/h (0 Bft) 0,00 %
18.06.2015 23:15 14,4 C 95 % 1012,3 hPa 0,0 l/m 1,4 km/h (1 Bft) W-SW 256 0 min 0,000 mm 0,0 UV-I 0 W/m 13,6 C 14,4 C 4,0 km/h (1 Bft) 0,00 %
18.06.2015 23:20 14,4 C 95 % 1012,3 hPa 0,0 l/m 0,0 km/h (0 Bft) S-SW 209 0 min 0,000 mm 0,0 UV-I 0 W/m 13,6 C 14,4 C 0,0 km/h (0 Bft) 0,00 %
18.06.2015 23:25 14,4 C 95 % 1012,3 hPa 0,0 l/m 0,0 km/h (0 Bft) SW 214 0 min 0,000 mm 0,0 UV-I 0 W/m 13,6 C 14,4 C 0,0 km/h (0 Bft) 0,00 %
18.06.2015 23:30 14,4 C 95 % 1012,2 hPa 0,0 l/m 0,0 km/h (0 Bft) S 183 0 min 0,000 mm 0,0 UV-I 0 W/m 13,6 C 14,4 C 0,0 km/h (0 Bft) 0,00 %
18.06.2015 23:35 14,3 C 95 % 1012,2 hPa 0,9 l/m 2,2 km/h (1 Bft) W-SW 244 0 min 0,000 mm 0,0 UV-I 0 W/m 13,5 C 14,3 C 4,0 km/h (1 Bft) 0,00 %
18.06.2015 23:40 14,3 C 96 % 1012,2 hPa 0,3 l/m 0,0 km/h (0 Bft) W-SW 251 0 min 0,000 mm 0,0 UV-I 0 W/m 13,7 C 14,3 C 0,0 km/h (0 Bft) 0,00 %
18.06.2015 23:45 14,3 C 96 % 1012,1 hPa 0,0 l/m 0,0 km/h (0 Bft) SO 129 0 min 0,000 mm 0,0 UV-I 0 W/m 13,7 C 14,3 C 0,0 km/h (0 Bft) 0,00 %
18.06.2015 23:50 14,3 C 96 % 1012,1 hPa 0,0 l/m 0,0 km/h (0 Bft) SW 214 0 min 0,000 mm 0,0 UV-I 0 W/m 13,7 C 14,3 C 0,0 km/h (0 Bft) 0,00 %
18.06.2015 23:55 14,3 C 96 % 1012,1 hPa 0,0 l/m 0,0 km/h (0 Bft) SO 134 0 min 0,000 mm 0,0 UV-I 0 W/m 13,7 C 14,3 C 0,0 km/h (0 Bft) 0,00 %
_ Min-Zeit 03:45 14:45 23:45 - 00:00 - - - - - - 00:05 03:45 00:00 00:00
Minimum _ 8,2 C 46 % 1012,1 hPa - 0,0 km/h (0 Bft) - - - - - - 6,8 C 8,2 C 0,0 km/h (0 Bft) 0,00 %
_ Max-Zeit 14:45 04:40 00:15 23:35 15:05 - - 05:20 00:00 14:20 14:05 23:40 14:45 13:10 00:00
Maximum _ 21,4 C 99 % 1020,0 hPa 0,9 l/m 14,0 km/h
W (3 Bft)
- - 5 min 0,000 mm 5,0 UV-I 753 W/m 13,7 C 21,3 C 19,8 km/h
W (3 Bft)
0,00 %
Durchschnitt _ 14,8 C 78 % 1015,3 hPa #1,8 l/m 1,2 km/h (1 Bft) W-SW - #2:55 h #0,000 mm 1,7 UV-I 231 W/m 10,5 C 14,8 C 2,6 km/h (1 Bft) 0,00 %